Location: Hurstbourne Priors
(51.2000°N, 1.3667°W)
Time: 02:10:44
(UTC+00:00)

STARLINK-1240 - Pass Details

Date: 09 April 2020
Orbit: 549 x 550 km, 53.0° (Epoch: 03 June)

Event Time Altitude Azimuth Distance (km) Brightness Sun altitude
Rises 20:11:01 0° 289° (WNW) 2,729 9.0 -12.2°
Reaches altitude 10° 20:13:15 10° 287° (WNW) 1,833 7.7 -12.5°
Maximum altitude 20:17:24 70° 204° (SSW) 589 3.7 -13.1°
Enters shadow 20:19:57 22° 124° (SE) 1,222 4.7 -13.4°
